Temperature
21 21 21 20 20 19 19 20 20 20 20 20 19 19 20 20 20 20 20 19 19 19 19 19 19 19 19 19 19 19 19 19 19 19 19 19 18 18 18 17 17 16 17
22 21 22 21 20 19 19 19 20 20 20 20 19 20 20 20 20 20 20 20 20 19 19 19 19 19 19 19 19 19 19 19 19 19 19 19 19 19 19 18 17 17 17
22 22 22 21 20 19 19 19 20 20 20 20 20 20 20 20 20 20 20 20 20 20 20 20 20 20 20 20 20 20 20 20 20 19 19 17 18 19 19 19 19 18 18
22 22 22 21 20 20 19 19 20 20 20 20 20 20 20 20 20 20 20 20 20 20 20 20 20 20 20 20 20 20 20 20 20 19 18 18 18 19 19 19 19 19 18
21 21 22 21 21 20 20 20 20 20 20 20 20 20 20 20 20 20 20 20 20 20 20 20 20 20 20 20 19 19 19 19 19 19 18 18 17 19 19 19 19 19 19
21 20 22 21 21 21 20 20 20 20 20 20 20 20 20 20 20 20 20 20 20 20 20 20 19 19 19 19 19 19 19 19 19 18 18 17 17 18 18 18 18 18 18
21 20 21 21 21 21 21 20 20 20 20 20 20 20 20 20 20 20 20 20 20 19 19 19 19 19 19 19 19 18 18 18 18 18 18 17 17 17 18 18 18 18 18
21 21 21 22 21 21 21 21 20 20 20 20 20 20 20 20 19 19 19 19 19 19 19 19 19 19 19 19 19 18 18 18 17 17 17 17 17 17 18 17 17 17 17
22 21 20 21 21 21 21 20 20 20 20 20 20 20 19 19 19 19 19 19 19 19 19 19 19 19 19 19 19 19 18 18 17 18 17 17 17 17 18 17 17 17 17
21 21 20 20 19 20 20 20 20 20 20 20 20 20 19 19 19 19 19 19 19 19 19 19 19 19 19 19 19 19 18 18 18 18 18 18 17 17 17 17 17 17 17
20 21 20 20 19 19 19 19 20 20 20 20 19 19 19 19 18 18 19 19 19 19 19 19 19 19 19 19 19 19 18 18 18 19 19 18 17 17 17 17 17 17 17
20 20 20 20 20 19 19 19 18 18 19 19 18 18 18 18 18 18 18 19 19 19 19 19 19 19 18 18 18 18 18 18 18 19 19 18 18 18 18 17 17 17 17
21 20 20 20 19 19 19 19 19 19 19 18 18 18 18 18 18 18 18 18 19 19 19 18 18 18 18 18 18 18 18 18 18 18 19 18 18 18 18 18 18 18 18
21 21 20 20 19 19 19 19 19 19 19 19 18 18 19 18 18 18 18 18 18 18 18 18 18 18 17 17 17 18 18 18 18 18 18 18 18 18 18 18 18 18 18
21 21 21 20 20 20 20 19 18 18 19 19 18 18 18 18 18 18 18 18 18 18 18 18 18 18 18 17 17 18 18 18 18 18 18 18 18 18 18 18 18 18 18
21 21 21 20 20 20 20 20 19 19 19 18 18 18 18 18 18 18 18 18 18 18 18 18 18 18 18 18 18 18 18 18 18 18 18 18 18 18 18 18 18 18 18
21 21 20 20 20 20 20 19 19 19 19 18 18 18 18 18 18 18 18 18 18 18 18 18 18 18 18 18 18 18 18 18 18 18 18 18 18 18 18 19 19 18 19
22 21 20 20 19 19 19 19 19 18 18 18 18 18 17 17 17 17 17 17 17 17 17 17 18 18 17 17 17 18 18 18 18 18 18 18 18 18 18 18 19 19 19
21 20 20 20 19 19 19 19 18 18 18 18 18 17 17 17 17 17 17 17 17 17 17 17 17 17 17 17 17 17 17 18 18 18 18 18 17 18 18 18 18 19 19
21 20 20 19 19 19 19 19 18 18 18 18 18 17 17 17 16 16 16 16 16 16 16 16 16 16 16 17 17 17 17 18 18 18 18 18 18 18 18 18 18 18 19
21 20 20 19 19 19 19 19 19 19 18 18 17 17 16 16 16 16 16 15 15 16 15 15 16 16 16 17 17 17 18 18 18 17 17 18 18 18 18 18 18 18 18
21 21 20 20 20 20 19 19 19 18 18 18 17 17 16 16 16 15 15 15 15 15 15 15 15 15 16 16 16 17 18 19 18 18 18 18 18 18 18 18 18 18 18
21 21 20 20 20 20 20 19 19 18 18 18 17 17 16 16 15 15 15 15 15 15 15 15 15 14 15 15 16 17 18 19 20 19 18 18 18 18 18 18 18 17 17
21 21 20 20 20 20 20 19 19 19 19 18 17 17 16 15 15 15 15 14 15 14 14 14 14 14 13 14 15 16 16 17 18 19 19 18 17 17 17 18 17 17 17
21 20 20 20 20 20 20 20 20 19 18 18 17 16 16 15 15 14 14 14 14 14 14 14 14 14 14 14 14 15 15 15 15 16 18 19 18 17 17 16 16 17 16
19 19 19 20 20 20 20 20 19 19 18 18 17 16 16 15 14 14 14 14 14 13 13 13 14 14 14 14 14 14 15 15 16 16 17 17 18 17 16 16 16 16 16
Wind_Speed
13 18 22 17 15 13 12 14 16 17 17 17 17 16 14 13 12 11 10 10 9 9 11 11 9 9 9 10 11 12 12 12 10 10 10 10 10 11 11 9 7 10 11
17 20 22 18 16 14 13 14 16 16 16 16 16 15 14 13 12 12 11 10 10 9 9 9 9 8 8 9 10 11 11 11 10 10 10 10 9 9 9 7 1 10 11
18 20 21 18 16 15 14 14 16 16 16 15 15 14 13 12 12 11 10 10 9 9 9 8 8 8 8 8 8 9 9 11 10 9 10 9 9 8 7 7 6 10 9
19 19 19 19 17 15 14 14 14 15 14 14 13 12 11 11 10 10 9 9 8 8 8 8 8 8 7 7 7 7 7 8 9 10 10 7 8 10 8 8 8 9 9
17 17 19 19 17 15 14 14 13 13 13 12 12 11 11 10 9 8 8 8 7 7 6 6 6 6 6 6 6 5 6 6 7 10 6 5 5 10 10 10 9 9 10
16 17 20 19 17 16 15 14 13 13 13 12 11 11 10 10 9 9 9 8 8 7 6 6 5 5 5 6 5 5 5 6 9 11 6 7 7 10 10 12 12 11 11
16 15 20 19 18 16 15 14 13 12 12 12 12 11 11 11 10 9 9 9 8 8 7 7 6 6 6 6 6 7 8 8 12 9 7 9 7 11 11 13 15 15 15
15 15 19 18 17 17 16 15 14 14 13 12 12 12 11 11 10 10 10 10 9 9 9 8 8 7 7 7 8 8 9 12 13 11 11 11 10 11 12 13 15 19 20
13 14 16 17 17 16 15 15 15 14 14 14 13 13 12 12 11 11 11 11 11 11 11 10 10 10 10 9 10 10 11 12 14 12 12 11 11 12 13 15 14 17 21
11 12 13 14 15 15 15 15 15 15 14 14 14 14 13 13 13 13 13 14 13 12 12 13 12 12 12 12 12 13 13 13 16 16 12 10 13 12 13 14 14 13 19
11 10 12 13 12 13 13 16 16 15 16 15 15 16 14 14 14 14 16 12 13 14 15 15 15 15 15 16 17 16 14 14 16 13 11 6 12 11 13 15 16 15 16
13 13 10 11 11 12 11 11 13 14 15 16 14 14 14 13 12 12 6 10 14 16 16 17 17 16 17 15 16 18 13 15 15 13 11 10 11 13 16 17 17 17 17
12 11 11 10 10 10 9 9 9 10 11 13 14 13 13 11 11 11 10 11 14 15 15 14 15 14 14 12 11 10 12 12 11 11 10 12 14 16 17 18 18 19 19
10 11 10 10 9 9 9 7 8 8 8 9 11 13 11 9 9 9 8 10 10 9 9 10 9 12 12 13 13 13 13 11 12 11 9 9 14 16 18 18 18 19 19
10 10 9 9 9 8 8 7 8 8 9 10 9 11 12 9 9 8 8 9 11 11 10 9 10 11 11 12 13 13 13 13 13 14 13 12 15 17 19 19 18 18 18
9 9 9 9 9 9 8 8 7 8 8 10 9 10 11 10 9 9 10 10 11 12 11 9 11 11 11 11 13 13 13 14 12 13 15 15 17 20 21 20 19 18 17
9 9 9 10 9 9 9 9 7 8 8 8 8 10 11 11 11 9 10 11 11 12 12 11 13 11 11 11 13 13 12 12 12 13 15 15 16 18 23 22 20 19 18
8 9 9 8 8 8 8 7 7 7 7 7 7 8 10 10 10 8 9 9 9 10 9 10 11 11 11 11 11 10 10 11 13 13 15 15 16 17 18 23 22 20 18
8 8 8 7 7 7 7 6 6 6 6 6 6 6 6 7 7 6 6 7 8 8 9 10 10 10 11 12 11 11 12 13 14 15 16 16 17 17 18 16 22 21 20
6 5 5 5 5 5 4 3 4 4 5 4 4 3 4 4 5 6 7 7 9 9 9 9 10 11 11 12 13 13 13 13 13 15 16 16 16 18 19 19 16 18 23
6 5 5 4 4 3 2 2 2 3 3 3 2 1 2 3 4 5 8 8 9 10 11 13 13 14 13 12 12 14 14 16 16 14 15 15 17 17 17 16 16 15 13
7 5 5 5 4 4 3 2 2 3 4 4 3 2 3 3 5 6 7 9 10 10 12 13 13 13 14 12 12 13 14 14 14 16 15 15 16 15 16 16 15 13 14
6 5 4 4 4 5 4 4 4 4 5 5 5 5 3 4 5 6 8 10 10 11 11 11 12 14 14 14 14 13 12 14 12 12 15 14 14 13 14 13 13 12 13
5 5 5 5 6 6 7 7 7 7 8 7 6 5 4 4 6 7 8 9 10 10 10 11 11 12 13 13 13 14 16 16 14 12 10 12 13 13 13 11 11 11 11
4 5 6 7 8 8 8 7 7 8 8 7 5 5 6 6 6 7 8 9 10 10 11 11 12 13 12 13 13 13 14 14 16 15 14 11 11 12 11 11 9 8 8
7 7 8 8 9 8 8 8 8 8 8 8 7 7 7 6 6 6 8 9 10 10 11 12 12 13 12 13 13 13 13 12 13 14 15 14 12 9 8 7 7 6 4
Wind_Direction
156 148 150 161 156 146 138 129 130 136 140 137 135 134 135 135 133 128 122 117 114 110 113 116 115 112 111 110 111 119 122 120 120 121 120 116 113 117 121 127 157 128 120
149 148 152 160 156 148 143 134 132 137 139 137 137 137 138 138 137 134 130 126 125 124 124 126 127 126 124 123 124 128 132 133 134 136 136 132 125 124 131 142 182 116 137
147 147 155 160 156 151 148 142 138 140 142 142 141 140 141 142 142 141 139 137 137 138 139 139 137 135 135 137 139 142 143 145 148 154 176 159 137 143 148 151 134 133 152
147 149 156 156 157 153 151 149 146 145 146 146 145 145 147 148 149 152 152 152 152 152 153 152 149 147 147 149 152 155 156 157 162 179 201 159 155 148 173 170 165 163 169
144 147 147 156 159 156 155 155 154 153 152 152 152 153 155 157 161 165 167 169 172 173 174 174 170 164 162 163 166 169 173 179 185 217 206 183 171 141 179 180 185 184 184
147 152 148 160 161 160 161 162 162 163 163 164 165 166 168 171 177 183 185 188 192 195 198 201 199 192 189 188 192 199 205 209 220 226 206 209 200 155 185 190 194 199 199
154 153 150 162 164 166 168 170 171 173 175 177 180 183 185 188 194 200 201 205 210 213 217 223 226 225 221 220 221 222 223 228 247 251 226 222 215 163 201 208 204 204 206
156 156 149 162 168 170 174 176 179 182 185 189 192 197 200 203 208 216 222 224 227 230 232 234 239 243 243 243 241 239 236 241 243 246 240 235 190 178 219 233 229 216 210
161 160 156 169 173 176 180 184 187 190 193 198 202 206 211 215 220 227 231 234 236 238 240 241 244 248 251 250 249 246 242 244 262 255 244 242 173 189 223 240 249 233 219
168 170 164 180 176 182 186 192 198 201 204 207 212 216 220 224 227 230 235 231 235 241 245 248 250 254 254 251 250 248 244 244 250 254 246 227 169 199 228 240 245 246 228
179 185 183 185 184 194 198 186 198 207 211 214 217 220 226 236 236 225 231 227 234 244 248 250 253 256 258 251 244 243 243 249 252 254 257 189 167 208 238 246 245 244 239
183 189 191 198 191 204 209 196 207 214 212 218 228 222 224 236 250 254 231 221 242 250 253 251 252 255 254 256 238 223 242 246 257 258 249 180 191 221 239 245 247 245 244
177 186 193 202 203 211 210 219 219 224 224 225 233 237 242 252 251 252 252 233 234 240 249 246 242 249 253 257 270 257 257 263 260 261 250 185 204 227 239 242 243 245 244
171 180 192 197 206 218 228 227 232 236 234 233 232 236 242 249 257 261 262 269 266 256 253 259 259 259 262 268 268 271 270 267 269 273 275 213 216 232 244 245 243 244 242
176 183 189 195 204 213 226 246 246 248 249 242 239 240 242 251 263 270 276 276 277 277 270 263 269 271 269 266 266 265 264 264 267 271 273 255 233 234 243 247 247 247 245
189 192 195 202 205 211 219 231 247 256 251 262 258 256 259 263 268 273 274 274 273 273 275 274 269 268 267 266 266 267 267 264 263 268 267 266 245 232 237 243 246 248 248
197 205 208 211 213 215 229 240 248 253 256 260 266 269 269 267 268 270 271 270 270 270 269 267 267 263 258 256 256 258 259 261 263 265 266 267 266 242 228 232 238 241 245
207 213 220 225 221 222 236 255 269 272 275 276 281 283 286 285 280 277 272 273 279 279 273 270 267 268 262 258 256 254 250 249 251 253 255 253 257 263 245 223 224 231 238
211 219 224 230 234 236 244 253 263 274 282 286 293 300 305 302 305 296 289 290 288 281 277 276 277 275 273 270 264 254 249 246 243 242 244 246 248 249 257 239 213 220 229
188 199 210 211 218 227 232 242 267 276 281 283 291 303 311 316 324 317 300 302 299 290 287 286 288 279 274 274 272 268 259 250 243 239 240 242 243 244 245 250 238 224 219
158 165 176 181 168 189 198 245 263 280 290 289 287 301 304 321 326 312 306 308 294 290 291 289 285 280 272 269 267 266 259 251 245 241 239 242 243 242 244 244 247 249 234
160 161 170 177 174 195 189 234 266 294 284 294 279 255 277 308 313 306 308 298 295 293 284 280 278 277 275 267 262 268 266 256 242 238 237 236 242 243 242 239 239 241 249
175 182 185 188 194 210 214 231 232 242 255 251 254 251 265 295 302 304 298 296 297 291 287 286 284 276 274 270 257 255 262 261 259 243 229 233 237 241 244 244 239 238 238
198 208 213 220 223 222 225 242 262 279 290 300 290 288 287 283 296 299 296 294 289 285 282 279 276 274 271 270 264 251 251 268 272 263 236 227 229 234 240 237 236 233 237
273 269 256 245 240 234 234 239 252 268 285 290 284 274 281 288 287 295 300 299 294 290 290 288 284 276 270 266 268 264 254 250 251 256 256 245 224 224 227 226 235 240 239
323 305 288 270 258 247 240 243 248 268 277 282 275 281 282 293 294 299 305 302 297 297 298 294 289 281 275 271 267 264 258 250 244 242 246 247 244 233 221 223 226 227 226
Height
1526 1527 1527 1530 1533 1537 1540 1542 1544 1545 1547 1548 1549 1550 1550 1551 1551 1551 1552 1553 1554 1555 1556 1557 1558 1559 1559 1559 1559 1559 1559 1559 1560 1560 1560 1560 1560 1560 1560 1561 1562 1563 1563
1525 1526 1528 1530 1534 1537 1540 1543 1545 1546 1548 1549 1550 1551 1552 1552 1553 1554 1554 1555 1556 1557 1558 1558 1559 1560 1560 1560 1560 1560 1560 1560 1561 1561 1562 1562 1562 1562 1562 1563 1563 1565 1565
1524 1526 1529 1531 1534 1537 1540 1543 1545 1547 1549 1550 1551 1552 1553 1554 1555 1555 1556 1557 1558 1558 1559 1559 1560 1560 1561 1561 1561 1561 1561 1562 1562 1562 1563 1566 1564 1564 1564 1564 1565 1565 1566
1526 1528 1530 1532 1535 1538 1541 1544 1546 1548 1549 1551 1552 1553 1554 1555 1556 1556 1557 1558 1558 1559 1560 1560 1560 1561 1561 1561 1562 1562 1562 1562 1563 1563 1566 1568 1567 1565 1565 1565 1566 1566 1567
1528 1530 1531 1534 1537 1539 1542 1545 1547 1548 1550 1551 1552 1553 1554 1555 1556 1556 1557 1557 1558 1559 1560 1560 1560 1560 1561 1561 1562 1562 1562 1562 1563 1563 1567 1567 1567 1565 1565 1565 1566 1566 1567
1529 1532 1532 1535 1538 1540 1543 1545 1547 1549 1550 1551 1552 1553 1554 1555 1555 1556 1556 1557 1557 1558 1559 1559 1560 1560 1560 1560 1560 1561 1562 1562 1562 1565 1566 1566 1566 1564 1564 1565 1565 1566 1567
1531 1534 1533 1536 1538 1541 1543 1545 1547 1548 1550 1551 1552 1553 1553 1554 1554 1555 1555 1556 1556 1557 1557 1558 1558 1558 1559 1559 1559 1559 1560 1560 1561 1565 1564 1564 1564 1563 1563 1564 1564 1565 1566
1533 1535 1534 1536 1538 1541 1543 1545 1546 1547 1549 1550 1551 1552 1552 1553 1553 1554 1554 1554 1555 1555 1556 1556 1557 1557 1557 1557 1557 1557 1558 1558 1560 1562 1562 1562 1561 1560 1561 1562 1562 1563 1564
1534 1536 1535 1536 1538 1540 1542 1544 1545 1547 1548 1549 1550 1551 1551 1552 1552 1553 1553 1553 1553 1553 1554 1554 1555 1555 1555 1555 1555 1556 1556 1556 1556 1559 1559 1559 1558 1557 1558 1559 1560 1561 1562
1534 1536 1536 1539 1540 1541 1542 1543 1544 1546 1547 1548 1548 1549 1550 1550 1550 1551 1551 1551 1551 1551 1551 1552 1552 1553 1553 1553 1553 1553 1553 1553 1554 1557 1557 1556 1554 1554 1555 1555 1556 1557 1559
1532 1535 1537 1540 1540 1541 1543 1543 1543 1544 1545 1546 1547 1547 1548 1548 1550 1550 1549 1549 1549 1549 1549 1549 1549 1550 1550 1550 1550 1550 1550 1551 1553 1554 1554 1553 1551 1551 1551 1552 1552 1553 1555
1531 1534 1535 1538 1539 1540 1542 1543 1542 1543 1544 1544 1546 1546 1546 1547 1548 1549 1547 1546 1546 1546 1545 1546 1546 1546 1546 1547 1548 1547 1547 1548 1549 1550 1550 1548 1547 1547 1548 1548 1548 1549 1551
1531 1533 1534 1536 1537 1539 1540 1541 1542 1543 1543 1543 1543 1543 1544 1544 1544 1544 1544 1544 1543 1542 1543 1543 1543 1543 1544 1544 1544 1545 1544 1545 1545 1546 1546 1544 1544 1544 1544 1544 1545 1546 1547
1530 1531 1533 1535 1535 1536 1538 1539 1539 1540 1540 1540 1539 1539 1540 1540 1540 1540 1540 1541 1541 1540 1539 1539 1539 1539 1539 1539 1539 1539 1539 1539 1540 1541 1541 1540 1541 1541 1541 1541 1542 1542 1543
1529 1531 1532 1533 1533 1534 1534 1535 1536 1536 1537 1537 1536 1536 1536 1536 1536 1536 1536 1536 1536 1536 1535 1534 1534 1534 1534 1534 1534 1534 1534 1534 1534 1535 1536 1536 1536 1537 1537 1537 1538 1538 1539
1528 1530 1531 1531 1531 1532 1532 1532 1532 1533 1533 1533 1533 1533 1532 1532 1531 1531 1531 1530 1530 1529 1529 1529 1528 1528 1528 1528 1528 1528 1528 1528 1528 1529 1530 1531 1531 1531 1532 1533 1533 1534 1534
1527 1528 1529 1529 1530 1530 1530 1530 1530 1530 1530 1529 1529 1529 1528 1528 1527 1526 1525 1524 1524 1524 1524 1524 1523 1523 1522 1522 1521 1521 1521 1522 1522 1523 1524 1525 1526 1527 1527 1527 1528 1529 1529
1525 1526 1526 1527 1528 1528 1528 1527 1528 1527 1527 1526 1526 1525 1524 1524 1523 1522 1521 1520 1520 1519 1518 1518 1518 1517 1517 1516 1515 1514 1514 1514 1514 1515 1517 1518 1519 1521 1522 1521 1522 1523 1524
1522 1523 1523 1524 1525 1525 1525 1525 1525 1524 1524 1524 1523 1522 1521 1520 1519 1518 1517 1516 1515 1515 1514 1513 1513 1512 1511 1511 1510 1508 1508 1507 1507 1508 1509 1511 1513 1514 1515 1516 1515 1516 1517
1519 1520 1521 1522 1523 1523 1524 1523 1523 1523 1523 1522 1521 1520 1519 1518 1517 1515 1515 1513 1511 1511 1510 1509 1507 1506 1505 1505 1504 1503 1502 1501 1501 1501 1502 1504 1506 1507 1508 1509 1510 1510 1510
1517 1519 1520 1521 1521 1522 1523 1523 1523 1523 1522 1521 1520 1518 1517 1515 1514 1511 1511 1509 1507 1506 1505 1503 1502 1502 1501 1500 1499 1497 1496 1495 1494 1494 1495 1497 1499 1500 1501 1502 1503 1504 1505
1517 1518 1519 1519 1520 1521 1521 1520 1520 1520 1520 1519 1518 1515 1514 1512 1510 1509 1506 1504 1503 1501 1498 1497 1496 1494 1494 1495 1494 1492 1490 1489 1486 1487 1488 1489 1491 1493 1494 1495 1496 1496 1497
1517 1518 1518 1518 1518 1519 1519 1519 1518 1517 1516 1516 1515 1513 1511 1508 1506 1504 1501 1499 1497 1495 1493 1490 1489 1487 1486 1487 1487 1487 1484 1480 1480 1480 1480 1482 1483 1485 1487 1488 1489 1490 1490
1516 1517 1516 1516 1516 1516 1517 1517 1517 1516 1515 1514 1512 1511 1508 1505 1502 1500 1497 1494 1492 1489 1487 1485 1483 1481 1479 1478 1479 1478 1478 1477 1477 1475 1475 1475 1476 1478 1480 1481 1483 1483 1484
1515 1515 1514 1513 1513 1513 1513 1513 1513 1513 1512 1510 1508 1506 1503 1502 1498 1496 1493 1491 1488 1486 1483 1480 1478 1476 1474 1472 1471 1471 1471 1471 1471 1471 1470 1470 1471 1472 1473 1475 1476 1477 1478
1512 1512 1511 1510 1510 1510 1510 1509 1509 1508 1507 1506 1504 1502 1501 1499 1496 1494 1490 1487 1484 1482 1479 1476 1473 1471 1468 1466 1465 1465 1464 1464 1464 1465 1464 1465 1465 1467 1468 1469 1470 1471 1472